Location: Cherryland
(37.6794°N, 122.1033°W)
Time: 13:32:49
(UTC+00:00)

Cosmos-2242 - Pass Details

Date: 14 December 2025
Orbit: 566 x 591 km, 82.5° (Epoch: 17 January)

Event Time Altitude Azimuth Distance (km) Brightness Sun altitude
Exits shadow 12:49:28 29° 43° (NE) 1,086 4.5 -28.1°
Maximum altitude 12:50:41 35° 78° (ENE) 950 4.4 -27.9°
Drops below altitude 10° 12:54:29 10° 145° (SE) 1,877 6.1 -27.1°
Sets 12:56:47 0° 154° (SSE) 2,766 6.9 -26.7°
